Weather in Joinville

Brazil     26°18′46″S   48°50′50″W
temp.,
°C
wind,
m/s
gust,
m/s
humid.,
%
clouds,
%
prec.,
mm/h
press.,
hPa
HPBL,
m
5 march, fri
fri500:00+22nnw1298100 0.3 100750
03:00+21nnw1197100 0.3 100624
06:00+20nw0096100 0.0 100523
09:00+27nne1171100 0.0 1006316
12:00+32w2747100 0.0 10051949
15:00+31w3551100 0.1 10041502
18:00+27nnw1480100 0.3 1003156
21:00+22s149862 1.4 1006113
6 march, sat
sat600:00+21w1110040 0.4 100632
03:00+21wsw119949 0.6 100624
06:00+20nw119860 0.1 100723
09:00+25w127940 0.4 1009320
12:00+26e23882 3.8 1009567
15:00+25ese149112 7.9 1007798
18:00+23sse019657 2.3 100845
21:00+21s119879 5.4 101230
7 march, sun
sun700:00+21sw1198100 1.1 101231
03:00+20sw119997 2.2 101141
06:00+20sw119994 1.2 101279
09:00+20sw139997 2.1 1014177
12:00+22wsw1296100 0.4 1014177
15:00+26ese236586 0.9 10121034
18:00+24ene137861 0.2 1012172
21:00+20nnw019235 0.2 101423
8 march, mon
mon800:00+20w118969 0.0 101524
03:00+18wsw119851 0.1 101323
06:00+18wsw11985 0.0 101425
09:00+25sw11663 0.0 1014492
12:00+28e225745 0.0 10131236
15:00+28ene335756 0.1 10111235
18:00+25ene257526 0.0 1011687
21:00+21ne019126 0.1 101326
9 march, tue
tue900:00+20nne019663 0.1 101324
03:00+19wsw119932 0.1 101123
06:00+18wsw11997 0.0 101127
09:00+26nnw01697 0.0 1012541
12:00+30ene22480 0.0 10101453
15:00+29ene335517 0.3 10081099
18:00+24ne257714 0.2 1008596
21:00+20w119615 0.4 101024